Time,TemperatureF,DewpointF,PressureIn,WindDirection,WindDirectionDegrees,WindSpeedMPH,WindSpeedGustMPH,Humidity,HourlyPrecipIn,Conditions,Clouds,dailyrainin,SoftwareType,DateUTC
2017-10-23 00:01:00,79.1,74.2,30.09,ESE,115,1.0,1.0,85,0.00,,---,0.00,VWS V15.00,2017-10-23 04:01:00,
2017-10-23 00:07:00,78.9,74.0,30.09,East,94,2.0,3.0,85,0.00,,---,0.00,VWS V15.00,2017-10-23 04:07:00,
2017-10-23 00:12:00,78.9,74.0,30.09,ESE,117,1.0,4.0,85,0.00,,---,0.00,VWS V15.00,2017-10-23 04:12:00,
2017-10-23 00:17:00,78.9,74.0,30.09,SE,143,0.0,4.0,85,0.00,,---,0.00,VWS V15.00,2017-10-23 04:17:00,
2017-10-23 00:22:00,78.8,73.9,30.08,SE,129,0.0,4.0,85,0.00,,---,0.00,VWS V15.00,2017-10-23 04:22:00,
2017-10-23 00:27:00,78.8,73.9,30.08,SE,126,1.0,5.0,85,0.00,,---,0.00,VWS V15.00,2017-10-23 04:27:00,
2017-10-23 00:32:00,78.9,74.0,30.08,ESE,116,1.0,2.0,85,0.00,,---,0.00,VWS V15.00,2017-10-23 04:32:00,
2017-10-23 00:37:00,78.8,73.9,30.08,ESE,108,1.0,5.0,85,0.00,,---,0.00,VWS V15.00,2017-10-23 04:37:00,
2017-10-23 00:42:00,78.8,73.9,30.08,SE,145,1.0,5.0,85,0.00,,---,0.00,VWS V15.00,2017-10-23 04:42:00,
2017-10-23 00:47:00,78.8,73.9,30.08,SE,134,0.0,5.0,85,0.00,,---,0.00,VWS V15.00,2017-10-23 04:47:00,
2017-10-23 00:52:00,78.8,73.9,30.08,ESE,105,1.0,5.0,85,0.00,,---,0.00,VWS V15.00,2017-10-23 04:52:00,
2017-10-23 00:57:00,78.8,73.9,30.08,SE,141,1.0,5.0,85,0.00,,---,0.00,VWS V15.00,2017-10-23 04:57:00,
2017-10-23 01:02:00,78.7,74.2,30.08,ESE,109,1.0,2.0,86,0.00,,---,0.00,VWS V15.00,2017-10-23 05:02:00,
2017-10-23 01:03:00,78.7,74.2,30.08,SE,124,0.0,2.0,86,0.00,,---,0.00,VWS V15.00,2017-10-23 05:03:00,
2017-10-23 01:08:00,78.6,74.1,30.08,SSE,155,2.0,4.0,86,0.00,,---,0.00,VWS V15.00,2017-10-23 05:08:00,
2017-10-23 01:13:00,78.6,74.1,30.08,SSE,153,2.0,5.0,86,0.00,,---,0.00,VWS V15.00,2017-10-23 05:13:00,
2017-10-23 01:18:00,78.6,74.1,30.08,SSE,162,0.0,7.0,86,0.00,,---,0.00,VWS V15.00,2017-10-23 05:18:00,
2017-10-23 01:23:00,78.6,74.1,30.07,SSE,158,2.0,7.0,86,0.00,,---,0.00,VWS V15.00,2017-10-23 05:23:00,
2017-10-23 01:25:00,78.6,74.1,30.07,SE,129,2.0,7.0,86,0.00,,---,0.00,VWS V15.00,2017-10-23 05:25:00,
2017-10-23 01:30:00,78.7,73.8,30.07,SSE,160,0.0,7.0,85,0.00,,---,0.00,VWS V15.00,2017-10-23 05:30:00,
2017-10-23 01:35:00,78.6,73.7,30.07,SE,143,1.0,6.0,85,0.00,,---,0.00,VWS V15.00,2017-10-23 05:35:00,
2017-10-23 01:40:00,78.6,73.7,30.07,SE,146,2.0,7.0,85,0.00,,---,0.00,VWS V15.00,2017-10-23 05:40:00,
2017-10-23 01:45:00,78.6,73.7,30.07,SE,146,0.0,7.0,85,0.00,,---,0.00,VWS V15.00,2017-10-23 05:45:00,
2017-10-23 01:50:00,78.5,73.6,30.07,SE,135,0.0,7.0,85,0.00,,---,0.00,VWS V15.00,2017-10-23 05:50:00,
2017-10-23 01:56:00,78.5,73.6,30.07,East,100,0.0,7.0,85,0.00,,---,0.00,VWS V15.00,2017-10-23 05:56:00,
2017-10-23 02:01:00,78.6,73.7,30.07,East,84,2.0,2.0,85,0.00,,---,0.00,VWS V15.00,2017-10-23 06:01:00,
2017-10-23 02:06:00,78.5,73.6,30.07,SE,143,0.0,3.0,85,0.00,,---,0.00,VWS V15.00,2017-10-23 06:06:00,
2017-10-23 02:11:00,78.4,73.2,30.07,SE,144,1.0,5.0,84,0.00,,---,0.00,VWS V15.00,2017-10-23 06:11:00,
2017-10-23 02:16:00,78.4,73.2,30.07,SSE,161,1.0,5.0,84,0.00,,---,0.00,VWS V15.00,2017-10-23 06:16:00,
2017-10-23 02:21:00,78.3,73.1,30.07,SSW,200,0.0,5.0,84,0.00,,---,0.00,VWS V15.00,2017-10-23 06:21:00,
2017-10-23 02:26:00,78.2,73.0,30.06,SW,214,1.0,5.0,84,0.00,,---,0.00,VWS V15.00,2017-10-23 06:26:00,
2017-10-23 02:31:00,78.1,72.9,30.07,SE,127,0.0,2.0,84,0.00,,---,0.00,VWS V15.00,2017-10-23 06:31:00,
2017-10-23 02:36:00,78.1,72.5,30.07,East,85,3.0,4.0,83,0.00,,---,0.00,VWS V15.00,2017-10-23 06:36:00,
2017-10-23 02:41:00,78.1,72.5,30.07,SSE,158,0.0,4.0,83,0.00,,---,0.00,VWS V15.00,2017-10-23 06:41:00,
2017-10-23 02:46:00,78.1,72.5,30.06,SE,124,1.0,4.0,83,0.00,,---,0.00,VWS V15.00,2017-10-23 06:46:00,
2017-10-23 02:51:00,78.0,72.4,30.06,ESE,105,4.0,4.0,83,0.00,,---,0.00,VWS V15.00,2017-10-23 06:51:00,
2017-10-23 02:56:00,78.0,72.8,30.06,SW,236,1.0,4.0,84,0.00,,---,0.00,VWS V15.00,2017-10-23 06:56:00,
2017-10-23 03:01:00,77.9,72.7,30.06,East,89,0.0,2.0,84,0.00,,---,0.00,VWS V15.00,2017-10-23 07:01:00,
2017-10-23 03:06:00,77.7,72.8,30.06,SE,135,1.0,3.0,85,0.00,,---,0.00,VWS V15.00,2017-10-23 07:06:00,
2017-10-23 03:11:00,77.6,72.7,30.06,South,169,0.0,3.0,85,0.00,,---,0.00,VWS V15.00,2017-10-23 07:11:00,
2017-10-23 03:16:00,77.6,72.7,30.06,SSW,200,1.0,3.0,85,0.00,,---,0.00,VWS V15.00,2017-10-23 07:16:00,
2017-10-23 03:21:00,77.6,73.1,30.05,SE,129,2.0,5.0,86,0.00,,---,0.00,VWS V15.00,2017-10-23 07:21:00,
2017-10-23 03:26:00,77.7,73.2,30.05,South,179,0.0,5.0,86,0.00,,---,0.00,VWS V15.00,2017-10-23 07:26:00,
2017-10-23 03:31:00,77.6,73.1,30.05,ESE,123,1.0,3.0,86,0.00,,---,0.00,VWS V15.00,2017-10-23 07:31:00,
2017-10-23 03:36:00,77.6,73.1,30.05,South,179,0.0,4.0,86,0.00,,---,0.00,VWS V15.00,2017-10-23 07:36:00,
2017-10-23 03:42:00,77.6,73.1,30.05,East,100,1.0,4.0,86,0.00,,---,0.00,VWS V15.00,2017-10-23 07:42:00,
2017-10-23 03:47:00,77.5,73.3,30.05,East,86,0.0,5.0,87,0.00,,---,0.00,VWS V15.00,2017-10-23 07:47:00,
2017-10-23 03:48:00,77.5,73.3,30.05,ESE,120,0.0,5.0,87,0.00,,---,0.00,VWS V15.00,2017-10-23 07:48:00,
2017-10-23 03:53:00,77.5,73.3,30.05,SSE,150,0.0,5.0,87,0.00,,---,0.00,VWS V15.00,2017-10-23 07:53:00,
2017-10-23 03:58:00,77.4,73.2,30.04,SE,128,0.0,6.0,87,0.00,,---,0.00,VWS V15.00,2017-10-23 07:58:00,
2017-10-23 04:03:00,77.6,73.4,30.04,East,89,1.0,4.0,87,0.00,,---,0.00,VWS V15.00,2017-10-23 08:03:00,
2017-10-23 04:08:00,77.6,73.4,30.04,SE,137,0.0,6.0,87,0.00,,---,0.00,VWS V15.00,2017-10-23 08:08:00,
2017-10-23 04:13:00,77.5,73.3,30.04,East,86,1.0,6.0,87,0.00,,---,0.00,VWS V15.00,2017-10-23 08:13:00,
2017-10-23 04:18:00,77.4,73.2,30.04,SE,129,0.0,6.0,87,0.00,,---,0.00,VWS V15.00,2017-10-23 08:18:00,
2017-10-23 04:23:00,77.4,73.2,30.04,East,95,1.0,6.0,87,0.00,,---,0.00,VWS V15.00,2017-10-23 08:23:00,
2017-10-23 04:28:00,77.3,73.5,30.03,SSE,153,1.0,6.0,88,0.00,,---,0.00,VWS V15.00,2017-10-23 08:28:00,
2017-10-23 04:33:00,77.3,73.5,30.03,South,169,0.0,4.0,88,0.00,,---,0.00,VWS V15.00,2017-10-23 08:33:00,
2017-10-23 04:39:00,77.3,73.5,30.03,SW,232,0.0,4.0,88,0.00,,---,0.00,VWS V15.00,2017-10-23 08:39:00,
2017-10-23 04:44:00,77.3,73.5,30.03,SSW,198,0.0,6.0,88,0.00,,---,0.00,VWS V15.00,2017-10-23 08:44:00,
2017-10-23 04:49:00,77.4,73.6,30.03,ESE,123,1.0,6.0,88,0.00,,---,0.00,VWS V15.00,2017-10-23 08:49:00,
2017-10-23 04:54:00,77.3,73.5,30.03,ESE,122,0.0,6.0,88,0.00,,---,0.00,VWS V15.00,2017-10-23 08:54:00,
2017-10-23 04:59:00,77.3,73.5,30.03,SE,137,0.0,6.0,88,0.00,,---,0.00,VWS V15.00,2017-10-23 08:59:00,
2017-10-23 05:04:00,77.3,73.5,30.03,SE,143,2.0,3.0,88,0.00,,---,0.00,VWS V15.00,2017-10-23 09:04:00,
2017-10-23 05:09:00,77.3,73.5,30.03,SE,143,2.0,7.0,88,0.00,,---,0.00,VWS V15.00,2017-10-23 09:09:00,
2017-10-23 05:14:00,77.5,73.7,30.03,ESE,122,4.0,7.0,88,0.00,,---,0.00,VWS V15.00,2017-10-23 09:14:00,
2017-10-23 05:19:00,77.6,73.8,30.03,ESE,122,1.0,7.0,88,0.00,,---,0.00,VWS V15.00,2017-10-23 09:19:00,
2017-10-23 05:24:00,77.7,73.5,30.03,SE,141,0.0,7.0,87,0.00,,---,0.00,VWS V15.00,2017-10-23 09:24:00,
2017-10-23 05:29:00,77.8,73.6,30.03,SE,131,2.0,7.0,87,0.00,,---,0.00,VWS V15.00,2017-10-23 09:29:00,
2017-10-23 05:35:00,77.9,73.7,30.03,SE,129,0.0,6.0,87,0.00,,---,0.00,VWS V15.00,2017-10-23 09:35:00,
2017-10-23 05:40:00,77.9,73.7,30.03,SSE,163,2.0,7.0,87,0.00,,---,0.00,VWS V15.00,2017-10-23 09:40:00,
2017-10-23 05:45:00,77.9,73.7,30.03,ESE,108,0.0,7.0,87,0.00,,---,0.00,VWS V15.00,2017-10-23 09:45:00,
2017-10-23 05:50:00,77.9,73.7,30.03,SSE,149,2.0,7.0,87,0.00,,---,0.00,VWS V15.00,2017-10-23 09:50:00,
2017-10-23 05:55:00,77.9,73.7,30.04,SE,127,1.0,7.0,87,0.00,,---,0.00,VWS V15.00,2017-10-23 09:55:00,
2017-10-23 06:00:00,77.8,73.6,30.04,SSE,148,2.0,7.0,87,0.00,,---,0.00,VWS V15.00,2017-10-23 10:00:00,
2017-10-23 06:05:00,77.8,73.6,30.04,SSW,204,0.0,4.0,87,0.00,,---,0.00,VWS V15.00,2017-10-23 10:05:00,
2017-10-23 06:10:00,77.7,73.5,30.04,SSE,158,0.0,4.0,87,0.00,,---,0.00,VWS V15.00,2017-10-23 10:10:00,
2017-10-23 06:20:00,77.5,73.7,30.04,South,169,3.0,4.0,88,0.00,,---,0.00,VWS V15.00,2017-10-23 10:20:00,
2017-10-23 06:25:00,77.5,73.7,30.04,SE,139,0.0,4.0,88,0.00,,---,0.00,VWS V15.00,2017-10-23 10:25:00,
2017-10-23 06:30:00,77.5,73.7,30.04,ESE,120,0.0,4.0,88,0.00,,---,0.00,VWS V15.00,2017-10-23 10:30:00,
2017-10-23 06:35:00,77.4,73.6,30.04,SSE,161,0.0,2.0,88,0.00,,---,0.00,VWS V15.00,2017-10-23 10:35:00,
2017-10-23 06:40:00,77.3,73.5,30.04,SSE,155,0.0,4.0,88,0.00,,---,0.00,VWS V15.00,2017-10-23 10:40:00,
2017-10-23 06:45:00,77.3,73.5,30.04,ESE,103,2.0,4.0,88,0.00,,---,0.00,VWS V15.00,2017-10-23 10:45:00,
2017-10-23 06:51:00,77.2,73.4,30.04,ESE,108,0.0,4.0,88,0.00,,---,0.00,VWS V15.00,2017-10-23 10:51:00,
2017-10-23 06:56:00,77.1,73.3,30.04,South,177,0.0,4.0,88,0.00,,---,0.00,VWS V15.00,2017-10-23 10:56:00,
2017-10-23 07:01:00,77.0,73.2,30.04,SE,145,0.0,1.0,88,0.00,,---,0.00,VWS V15.00,2017-10-23 11:01:00,
2017-10-23 07:06:00,76.9,73.4,30.04,SE,145,0.0,2.0,89,0.00,,---,0.00,VWS V15.00,2017-10-23 11:06:00,
2017-10-23 07:11:00,76.7,73.2,30.04,SSE,150,0.0,3.0,89,0.00,,---,0.00,VWS V15.00,2017-10-23 11:11:00,
2017-10-23 07:16:00,76.6,73.1,30.04,SE,143,0.0,3.0,89,0.00,,---,0.00,VWS V15.00,2017-10-23 11:16:00,
2017-10-23 07:21:00,76.6,73.1,30.04,SSE,151,0.0,4.0,89,0.00,,---,0.00,VWS V15.00,2017-10-23 11:21:00,
2017-10-23 07:26:00,76.5,73.3,30.04,ESE,105,1.0,4.0,90,0.00,,---,0.00,VWS V15.00,2017-10-23 11:26:00,
2017-10-23 07:31:00,76.6,73.4,30.04,SE,135,1.0,2.0,90,0.00,,---,0.00,VWS V15.00,2017-10-23 11:31:00,
2017-10-23 07:36:00,76.6,73.4,30.04,SE,134,0.0,2.0,90,0.00,,---,0.00,VWS V15.00,2017-10-23 11:36:00,
2017-10-23 07:41:00,76.6,73.4,30.04,ESE,102,0.0,2.0,90,0.00,,---,0.00,VWS V15.00,2017-10-23 11:41:00,
2017-10-23 07:46:00,76.5,73.3,30.05,SE,140,0.0,2.0,90,0.00,,---,0.00,VWS V15.00,2017-10-23 11:46:00,
2017-10-23 07:51:00,76.6,73.4,30.04,SSE,155,0.0,2.0,90,0.00,,---,0.00,VWS V15.00,2017-10-23 11:51:00,
2017-10-23 07:57:00,76.7,73.6,30.05,SE,140,0.0,2.0,90,0.00,,---,0.00,VWS V15.00,2017-10-23 11:57:00,
2017-10-23 08:02:00,76.9,73.8,30.04,SE,126,2.0,2.0,90,0.00,,---,0.00,VWS V15.00,2017-10-23 12:02:00,
2017-10-23 08:07:00,77.3,74.1,30.04,South,191,1.0,3.0,90,0.00,,---,0.00,VWS V15.00,2017-10-23 12:07:00,
2017-10-23 08:12:00,77.7,74.2,30.05,SSE,153,1.0,3.0,89,0.00,,---,0.00,VWS V15.00,2017-10-23 12:12:00,
2017-10-23 08:17:00,78.3,74.8,30.05,SSE,150,0.0,3.0,89,0.00,,---,0.00,VWS V15.00,2017-10-23 12:17:00,
2017-10-23 08:22:00,78.9,75.1,30.05,ESE,108,1.0,3.0,88,0.00,,---,0.00,VWS V15.00,2017-10-23 12:22:00,
2017-10-23 08:27:00,79.4,75.2,30.05,SE,124,0.0,7.0,87,0.00,,---,0.00,VWS V15.00,2017-10-23 12:27:00,
2017-10-23 08:32:00,80.1,75.9,30.05,SSW,209,1.0,3.0,87,0.00,,---,0.00,VWS V15.00,2017-10-23 12:32:00,
2017-10-23 08:37:00,80.7,75.8,30.05,SE,134,2.0,7.0,85,0.00,,---,0.00,VWS V15.00,2017-10-23 12:37:00,
2017-10-23 08:42:00,81.1,75.8,30.05,ESE,107,2.0,7.0,84,0.00,,---,0.00,VWS V15.00,2017-10-23 12:42:00,
2017-10-23 08:47:00,81.4,76.1,30.05,ESE,108,1.0,7.0,84,0.00,,---,0.00,VWS V15.00,2017-10-23 12:47:00,
2017-10-23 08:52:00,81.5,76.2,30.05,SSE,159,4.0,11.0,84,0.00,,---,0.00,VWS V15.00,2017-10-23 12:52:00,
2017-10-23 08:57:00,81.9,76.2,30.05,SW,228,4.0,11.0,83,0.00,,---,0.00,VWS V15.00,2017-10-23 12:57:00,
2017-10-23 09:03:00,82.1,76.1,30.05,ESE,110,7.0,9.0,82,0.00,,---,0.00,VWS V15.00,2017-10-23 13:03:00,
2017-10-23 09:08:00,81.9,75.9,30.05,East,97,8.0,9.0,82,0.00,,---,0.00,VWS V15.00,2017-10-23 13:08:00,
2017-10-23 09:13:00,82.2,76.2,30.05,SSE,155,1.0,10.0,82,0.00,,---,0.00,VWS V15.00,2017-10-23 13:13:00,
2017-10-23 09:18:00,81.9,75.9,30.05,SW,236,1.0,10.0,82,0.00,,---,0.00,VWS V15.00,2017-10-23 13:18:00,
2017-10-23 09:23:00,82.2,76.2,30.05,ESE,106,1.0,10.0,82,0.00,,---,0.00,VWS V15.00,2017-10-23 13:23:00,
2017-10-23 09:28:00,82.4,76.4,30.05,SE,140,3.0,12.0,82,0.00,,---,0.00,VWS V15.00,2017-10-23 13:28:00,
2017-10-23 09:33:00,82.5,76.1,30.05,SW,214,3.0,8.0,81,0.00,,---,0.00,VWS V15.00,2017-10-23 13:33:00,
2017-10-23 09:38:00,82.4,76.0,30.05,SE,136,2.0,8.0,81,0.00,,---,0.00,VWS V15.00,2017-10-23 13:38:00,
2017-10-23 09:43:00,82.3,75.9,30.05,SSW,198,2.0,8.0,81,0.00,,---,0.00,VWS V15.00,2017-10-23 13:43:00,
2017-10-23 09:48:00,82.4,76.4,30.05,SSW,207,2.0,8.0,82,0.00,,---,0.00,VWS V15.00,2017-10-23 13:48:00,
2017-10-23 09:53:00,82.2,76.2,30.05,ESE,113,3.0,8.0,82,0.00,,---,0.00,VWS V15.00,2017-10-23 13:53:00,
2017-10-23 09:58:00,82.3,76.3,30.05,SE,140,1.0,8.0,82,0.00,,---,0.00,VWS V15.00,2017-10-23 13:58:00,
2017-10-23 10:03:00,82.6,76.6,30.05,SSE,162,2.0,9.0,82,0.00,,---,0.00,VWS V15.00,2017-10-23 14:03:00,
2017-10-23 10:09:00,82.7,76.3,30.05,SE,136,2.0,9.0,81,0.00,,---,0.00,VWS V15.00,2017-10-23 14:09:00,
2017-10-23 10:14:00,82.7,76.3,30.05,SW,224,2.0,9.0,81,0.00,,---,0.00,VWS V15.00,2017-10-23 14:14:00,
2017-10-23 10:19:00,82.8,76.4,30.05,ESE,122,8.0,9.0,81,0.00,,---,0.00,VWS V15.00,2017-10-23 14:19:00,
2017-10-23 10:24:00,83.2,76.4,30.05,SW,218,4.0,11.0,80,0.00,,---,0.00,VWS V15.00,2017-10-23 14:24:00,
2017-10-23 10:29:00,83.7,76.9,30.05,SE,128,4.0,11.0,80,0.00,,---,0.00,VWS V15.00,2017-10-23 14:29:00,
2017-10-23 10:34:00,84.2,77.0,30.05,SE,136,1.0,5.0,79,0.00,,---,0.00,VWS V15.00,2017-10-23 14:34:00,
2017-10-23 10:39:00,84.7,77.1,30.05,SSW,193,3.0,7.0,78,0.00,,---,0.00,VWS V15.00,2017-10-23 14:39:00,
2017-10-23 10:44:00,84.7,76.7,30.05,SSW,200,2.0,8.0,77,0.00,,---,0.00,VWS V15.00,2017-10-23 14:44:00,
2017-10-23 10:49:00,84.0,76.4,30.04,East,85,1.0,8.0,78,0.00,,---,0.00,VWS V15.00,2017-10-23 14:49:00,
2017-10-23 10:54:00,83.6,76.4,30.04,SW,219,1.0,11.0,79,0.00,,---,0.00,VWS V15.00,2017-10-23 14:54:00,
2017-10-23 10:59:00,83.6,76.4,30.04,SSW,195,2.0,11.0,79,0.00,,---,0.00,VWS V15.00,2017-10-23 14:59:00,
2017-10-23 11:04:00,83.6,76.4,30.04,SSE,165,1.0,5.0,79,0.00,,---,0.00,VWS V15.00,2017-10-23 15:04:00,
2017-10-23 11:09:00,83.7,76.1,30.03,SSE,159,1.0,8.0,78,0.00,,---,0.00,VWS V15.00,2017-10-23 15:09:00,
2017-10-23 11:14:00,83.7,76.1,30.03,South,174,3.0,8.0,78,0.00,,---,0.00,VWS V15.00,2017-10-23 15:14:00,
2017-10-23 11:19:00,84.0,76.0,30.03,SW,215,1.0,8.0,77,0.00,,---,0.00,VWS V15.00,2017-10-23 15:19:00,
2017-10-23 11:25:00,84.6,76.2,30.03,ENE,59,2.0,8.0,76,0.00,,---,0.00,VWS V15.00,2017-10-23 15:25:00,
2017-10-23 11:30:00,84.9,76.5,30.03,South,181,1.0,8.0,76,0.00,,---,0.00,VWS V15.00,2017-10-23 15:30:00,
2017-10-23 11:35:00,85.0,76.6,30.03,SSW,207,3.0,7.0,76,0.00,,---,0.00,VWS V15.00,2017-10-23 15:35:00,
2017-10-23 11:40:00,85.0,76.6,30.03,East,89,2.0,8.0,76,0.00,,---,0.00,VWS V15.00,2017-10-23 15:40:00,
2017-10-23 11:45:00,84.9,77.3,30.03,ESE,117,2.0,8.0,78,0.00,,---,0.00,VWS V15.00,2017-10-23 15:45:00,
2017-10-23 11:50:00,85.0,77.0,30.02,ESE,119,3.0,9.0,77,0.00,,---,0.00,VWS V15.00,2017-10-23 15:50:00,
2017-10-23 12:00:00,85.0,77.0,30.02,SSE,151,2.0,10.0,77,0.00,,---,0.00,VWS V15.00,2017-10-23 16:00:00,
2017-10-23 12:05:00,85.0,77.0,30.02,East,87,3.0,5.0,77,0.00,,---,0.00,VWS V15.00,2017-10-23 16:05:00,
2017-10-23 12:10:00,84.9,76.9,30.01,ESE,120,5.0,9.0,77,0.00,,---,0.00,VWS V15.00,2017-10-23 16:10:00,
2017-10-23 12:15:00,84.9,76.9,30.01,SSW,193,0.0,11.0,77,0.00,,---,0.00,VWS V15.00,2017-10-23 16:15:00,
2017-10-23 12:20:00,84.7,76.3,30.01,SSE,160,1.0,14.0,76,0.00,,---,0.00,VWS V15.00,2017-10-23 16:20:00,
2017-10-23 12:25:00,84.7,76.7,30.01,SW,221,3.0,14.0,77,0.00,,---,0.00,VWS V15.00,2017-10-23 16:25:00,
2017-10-23 12:30:00,84.5,76.5,30.01,ENE,68,3.0,14.0,77,0.00,,---,0.00,VWS V15.00,2017-10-23 16:30:00,
2017-10-23 12:35:00,84.3,76.3,30.00,SW,217,2.0,10.0,77,0.00,,---,0.00,VWS V15.00,2017-10-23 16:35:00,
2017-10-23 12:40:00,84.4,77.2,30.00,ESE,110,1.0,10.0,79,0.00,,---,0.00,VWS V15.00,2017-10-23 16:40:00,
2017-10-23 12:45:00,84.6,77.0,30.00,East,86,6.0,10.0,78,0.00,,---,0.00,VWS V15.00,2017-10-23 16:45:00,
2017-10-23 12:51:00,84.5,76.9,30.00,SSE,158,5.0,10.0,78,0.00,,---,0.00,VWS V15.00,2017-10-23 16:51:00,
2017-10-23 12:56:00,84.4,76.4,30.00,SE,125,2.0,10.0,77,0.00,,---,0.00,VWS V15.00,2017-10-23 16:56:00,
2017-10-23 13:01:00,84.3,76.3,29.99,South,169,1.0,1.0,77,0.00,,---,0.00,VWS V15.00,2017-10-23 17:01:00,
2017-10-23 13:06:00,84.2,75.4,29.99,SSE,152,2.0,12.0,75,0.00,,---,0.00,VWS V15.00,2017-10-23 17:06:00,
2017-10-23 13:11:00,84.2,75.4,29.99,SW,224,7.0,12.0,75,0.00,,---,0.00,VWS V15.00,2017-10-23 17:11:00,
2017-10-23 13:16:00,84.1,75.3,29.99,ESE,123,1.0,12.0,75,0.00,,---,0.00,VWS V15.00,2017-10-23 17:16:00,
2017-10-23 13:21:00,84.0,75.6,29.98,ESE,115,8.0,12.0,76,0.00,,---,0.00,VWS V15.00,2017-10-23 17:21:00,
2017-10-23 13:26:00,83.9,75.9,29.99,East,81,6.0,12.0,77,0.00,,---,0.00,VWS V15.00,2017-10-23 17:26:00,
2017-10-23 13:31:00,84.0,76.0,29.99,SSE,151,2.0,3.0,77,0.00,,---,0.00,VWS V15.00,2017-10-23 17:31:00,
2017-10-23 13:36:00,84.2,76.2,29.98,SE,124,5.0,10.0,77,0.00,,---,0.00,VWS V15.00,2017-10-23 17:36:00,
2017-10-23 13:41:00,84.4,76.0,29.98,SSE,151,2.0,10.0,76,0.00,,---,0.00,VWS V15.00,2017-10-23 17:41:00,
2017-10-23 13:46:00,84.6,76.2,29.97,South,188,4.0,10.0,76,0.00,,---,0.00,VWS V15.00,2017-10-23 17:46:00,
2017-10-23 13:51:00,85.0,76.2,29.98,SE,134,1.0,12.0,75,0.00,,---,0.00,VWS V15.00,2017-10-23 17:51:00,
2017-10-23 13:56:00,85.4,77.0,29.97,SE,135,2.0,12.0,76,0.00,,---,0.00,VWS V15.00,2017-10-23 17:56:00,
2017-10-23 14:01:00,85.6,76.8,29.97,South,176,2.0,3.0,75,0.00,,---,0.00,VWS V15.00,2017-10-23 18:01:00,
2017-10-23 14:03:00,85.6,76.8,29.96,East,84,4.0,7.0,75,0.00,,---,0.00,VWS V15.00,2017-10-23 18:03:00,
2017-10-23 14:08:00,85.6,77.2,29.96,SE,146,2.0,7.0,76,0.00,,---,0.00,VWS V15.00,2017-10-23 18:08:00,
2017-10-23 14:14:00,85.3,76.5,29.96,SE,128,1.0,7.0,75,0.00,,---,0.00,VWS V15.00,2017-10-23 18:14:00,
2017-10-23 14:19:00,85.1,76.7,29.96,SSE,161,1.0,7.0,76,0.00,,---,0.00,VWS V15.00,2017-10-23 18:19:00,
2017-10-23 14:24:00,85.0,77.0,29.96,SE,127,1.0,7.0,77,0.00,,---,0.00,VWS V15.00,2017-10-23 18:24:00,